Regional Weather Roundup
Issued by NWS Northern Indiana

Home | Current Version | Previous Version | Graphics & Text | Print | Product List | Glossary On
Versions: 1 2 3 4 5 6 7 8 9 10 11 12 13 14 15 16 17 18 19 20 21 22 23 24 25 26 27 28 29 30 31 32 33 34 35 36 37 38 39 40 41 42 43 44 45 46 47 48 49 50
000
ASUS43 KIWX 260910
RWRIWX

KIWX WEATHER ROUNDUP
NATIONAL WEATHER SERVICE NORTHERN INDIANA
500 AM EDT MON SEP 26 2016

NOTE: "FAIR" INDICATES FEW OR NO CLOUDS BELOW 12,000 FEET WITH NO
SIGNIFICANT WEATHER AND/OR OBSTRUCTIONS TO VISIBILITY.

* THESE STATIONS ARE NOT UNDER NWS QUALITY CONTROL. THEY ALSO MAY NOT
  REPORT WEATHER SUCH AS PRECIPITATION OR FOG.

INZ001>027-261000-
NORTHERN INDIANA

CITY           SKY/WX    TMP DP  RH WIND       PRES   REMARKS
GARY*          LGT RAIN  61  59  92 SW5       29.98S
VALPARAISO     LGT RAIN  59  56  89 W10       29.99R
MICHIGAN CITY* LGT RAIN  59  59 100 MISG      29.97S
LAPORTE*       LGT RAIN  60  60 100 W9        29.99R
KNOX*          CLOUDY    61  37  41 W12       29.97R
SOUTH BEND     RAIN      61  57  87 NW12      29.96R
GOSHEN         LGT RAIN  64  54  69 W15G24    29.95R
MONTICELLO*    LGT RAIN  62  54  73 W12       29.99R
LOGANSPORT*    CLOUDY    63  54  72 W13G20    30.01R
ROCHESTER*     MOCLDY    64  61  88 W13G18    29.98R
WARSAW*        RAIN      63  52  67 NW10      29.94R
ANGOLA*          N/A     66  59  77 NW9       29.90S
FORT WAYNE     CLOUDY    70  66  87 W6        29.90F
HUNTINGTON*    CLOUDY    69  67  94 W7        29.91F
PERU/GRISSOM   CLOUDY    66  57  72 W15G28    29.97R
MARION*        CLOUDY    68  66  92 W12       29.94S

$$
INZ028>050-261000-
CENTRAL INDIANA

CITY           SKY/WX    TMP DP  RH WIND       PRES   REMARKS
LAFAYETTE      HVY RAIN  59  57  93 NW6       30.01R FOG
MUNCIE*        RAIN      71  68  90 SW5       29.93F FOG
INDIANAPOLIS   CLOUDY    65  59  81 NW20G35   29.99R

$$
MIZ043>046-050>051-056>058-064>065-071>073-077>080-261000-
SOUTHWEST LOWER MICHIGAN

CITY           SKY/WX    TMP DP  RH WIND       PRES   REMARKS
BATTLE CREEK   CLOUDY    64  61  90 W7        29.90R
BENTON HARBOR  LGT RAIN  60  57  89 W7        29.93S
COLDWATER*     LGT RAIN  66  61  82 W12       29.90F
HILLSDALE*     DRIZZLE   64  63  94 W3        29.88F
HOLLAND        RAIN      62  60  93 W7        29.91R
GRAND RAPIDS   CLOUDY    64  58  80 W14       29.89R
KALAMAZOO      CLOUDY    64  59  83 W10       29.91S
STURGIS*       CLOUDY    65  56  72 NW7       29.92R
THREE RIVERS*  MIX PCPN  65  59  82 NW10      29.92S

$$
OHZ001>008-015>018-024>025-261000-
NORTHWEST OHIO

CITY           SKY/WX    TMP DP  RH WIND       PRES   REMARKS
WAUSEON*       CLOUDY    66  64  94 S6        29.88F
DEFIANCE       CLOUDY    68  64  87 S5        29.88F
FINDLAY        CLOUDY    68  54  60 S7        29.89F
TOLEDO EXPRESS CLOUDY    62  61  96 W3        29.89S
TOLEDO METCALF CLOUDY    66  57  72 S5        29.89F
LIMA           CLOUDY    69  62  78 W12       29.93R

$$
AND FOR LAKE MICHIGAN COASTAL AND OPEN LAKE BUOY OBSERVATIONS

STATION/POSITION TEMP    WIND        PRES    VSBY  WAVE
                 AIR SEA DIR/SP/G                  HT/PER
                 (F)     (DEG/KT/KT) (MB)    (MI)  (FT/S)
CALUMET HARBOR    60     250/  5/  9 1014.2F
MICHIGAN CITY     61     240/ 14/ 15   N/A
BURNS HARBOR      62     250/ 13/ 18 1015.2R
SAINT JOSEPH      61     260/ 11/ 15 1014.9
SOUTH LAKE BUOY   64 71  280/ 19/ 23 1012.0R         4/ 4
4 MI NW BRIDGMAN  62 67  270/ 12/ 16 1014.0          7/ 5
MICHIGAN CITY     63 66  260/ 14/ 17   N/A           5/ 5

$$
&&



USA.gov is the U.S. government's official web portal to all federal, state and local government web resources and services.